TimeMDT,TemperatureF,Dew PointF,Humidity,Sea Level PressureIn,VisibilityMPH,Wind Direction,Wind SpeedMPH,Gust SpeedMPH,PrecipitationIn,Events,Conditions,WindDirDegrees,DateUTC
12:15 AM,46.4,26.6,46,30.36,10.0,East,4.6,-,N/A,,Clear,80,2012-09-06 06:15:00
12:35 AM,46.4,26.6,46,30.36,10.0,Calm,Calm,-,N/A,,Clear,0,2012-09-06 06:35:00
12:55 AM,42.8,26.6,53,30.36,10.0,NNW,3.5,-,N/A,,Clear,330,2012-09-06 06:55:00
1:15 AM,42.8,28.4,57,30.37,10.0,Calm,Calm,-,N/A,,Clear,0,2012-09-06 07:15:00
1:35 AM,42.8,24.8,49,30.37,10.0,Calm,Calm,-,N/A,,Clear,0,2012-09-06 07:35:00
2:15 AM,41.0,23.0,49,30.36,10.0,Calm,Calm,-,N/A,,Clear,0,2012-09-06 08:15:00
2:35 AM,39.2,26.6,61,30.37,10.0,Calm,Calm,-,N/A,,Clear,0,2012-09-06 08:35:00
2:55 AM,37.4,24.8,60,30.37,10.0,Calm,Calm,-,N/A,,Clear,0,2012-09-06 08:55:00
3:15 AM,39.2,24.8,56,30.38,10.0,North,4.6,-,N/A,,Clear,350,2012-09-06 09:15:00
3:35 AM,37.4,23.0,56,30.38,10.0,Calm,Calm,-,N/A,,Clear,0,2012-09-06 09:35:00
3:55 AM,37.4,21.2,52,30.38,10.0,Calm,Calm,-,N/A,,Clear,0,2012-09-06 09:55:00
4:15 AM,37.4,24.8,60,30.38,10.0,Calm,Calm,-,N/A,,Clear,0,2012-09-06 10:15:00
4:55 AM,35.6,21.2,56,30.39,10.0,NNW,4.6,-,N/A,,Clear,340,2012-09-06 10:55:00
5:15 AM,35.6,24.8,65,30.40,10.0,NE,3.5,-,N/A,,Clear,50,2012-09-06 11:15:00
5:35 AM,35.6,21.2,56,30.40,10.0,Calm,Calm,-,N/A,,Clear,0,2012-09-06 11:35:00
5:55 AM,33.8,23.0,65,30.40,10.0,North,3.5,-,N/A,,Clear,350,2012-09-06 11:55:00
6:15 AM,35.6,23.0,60,30.41,10.0,Calm,Calm,-,N/A,,Clear,0,2012-09-06 12:15:00
6:35 AM,33.8,21.2,60,30.41,10.0,North,3.5,-,N/A,,Clear,10,2012-09-06 12:35:00
6:55 AM,33.8,21.2,60,30.42,10.0,Calm,Calm,-,N/A,,Clear,0,2012-09-06 12:55:00
7:15 AM,35.6,21.2,56,30.43,10.0,North,4.6,-,N/A,,Clear,360,2012-09-06 13:15:00
7:55 AM,37.4,23.0,56,30.44,10.0,Calm,Calm,-,N/A,,Clear,0,2012-09-06 13:55:00
8:15 AM,39.2,24.8,56,30.44,10.0,Calm,Calm,-,N/A,,Clear,0,2012-09-06 14:15:00
8:35 AM,42.8,24.8,49,30.43,10.0,Calm,Calm,-,N/A,,Clear,0,2012-09-06 14:35:00
8:55 AM,44.6,24.8,46,30.43,10.0,Calm,Calm,-,N/A,,Clear,0,2012-09-06 14:55:00
9:35 AM,50.0,23.0,35,30.43,10.0,Calm,Calm,-,N/A,,Clear,0,2012-09-06 15:35:00
9:55 AM,53.6,24.8,33,30.42,10.0,Calm,Calm,-,N/A,,Clear,0,2012-09-06 15:55:00
10:15 AM,55.4,23.0,29,30.42,10.0,Calm,Calm,-,N/A,,Clear,0,2012-09-06 16:15:00
10:35 AM,57.2,23.0,27,30.41,10.0,Calm,Calm,-,N/A,,Clear,0,2012-09-06 16:35:00
10:55 AM,60.8,24.8,25,30.40,10.0,Calm,Calm,-,N/A,,Clear,0,2012-09-06 16:55:00
11:15 AM,62.6,24.8,24,30.39,10.0,Calm,Calm,-,N/A,,Clear,0,2012-09-06 17:15:00
11:35 AM,64.4,23.0,21,30.38,10.0,SE,3.5,-,N/A,,Clear,140,2012-09-06 17:35:00
11:55 AM,66.2,21.2,18,30.38,10.0,Calm,Calm,-,N/A,,Clear,0,2012-09-06 17:55:00
12:15 PM,68.0,19.4,16,30.36,10.0,Calm,Calm,-,N/A,,Clear,0,2012-09-06 18:15:00
12:35 PM,69.8,23.0,17,30.36,10.0,Calm,Calm,-,N/A,,Clear,0,2012-09-06 18:35:00
12:55 PM,71.6,24.8,17,30.34,10.0,WSW,4.6,-,N/A,,Clear,250,2012-09-06 18:55:00
1:15 PM,73.4,24.8,16,30.33,10.0,SSW,3.5,-,N/A,,Clear,200,2012-09-06 19:15:00
1:55 PM,77.0,26.6,16,30.31,10.0,SSW,11.5,18.4,N/A,,Clear,210,2012-09-06 19:55:00
2:35 PM,78.8,26.6,15,30.29,10.0,SW,12.7,19.6,N/A,,Clear,220,2012-09-06 20:35:00
2:55 PM,80.6,26.6,14,30.28,10.0,SW,10.4,18.4,N/A,,Clear,230,2012-09-06 20:55:00
3:15 PM,77.0,24.8,14,30.27,10.0,SW,9.2,18.4,N/A,,Clear,230,2012-09-06 21:15:00
3:35 PM,78.8,26.6,15,30.27,10.0,WSW,9.2,-,N/A,,Partly Cloudy,240,2012-09-06 21:35:00
3:55 PM,77.0,26.6,16,30.26,10.0,WSW,10.4,17.3,N/A,,Partly Cloudy,250,2012-09-06 21:55:00
4:15 PM,78.8,26.6,15,30.26,10.0,SW,8.1,-,N/A,,Partly Cloudy,230,2012-09-06 22:15:00
4:35 PM,78.8,26.6,15,30.26,10.0,SW,10.4,16.1,N/A,,Scattered Clouds,230,2012-09-06 22:35:00
4:55 PM,77.0,26.6,16,30.25,10.0,WNW,10.4,18.4,N/A,,Mostly Cloudy,290,2012-09-06 22:55:00
5:15 PM,78.8,26.6,15,30.25,10.0,WNW,20.7,31.1,N/A,,Mostly Cloudy,300,2012-09-06 23:15:00
5:35 PM,75.2,26.6,17,30.27,10.0,WNW,16.1,21.9,N/A,,Mostly Cloudy,300,2012-09-06 23:35:00
5:55 PM,73.4,30.2,20,30.27,10.0,NNW,10.4,-,N/A,,Overcast,330,2012-09-06 23:55:00
6:15 PM,73.4,28.4,19,30.26,10.0,NW,11.5,23.0,N/A,,Mostly Cloudy,320,2012-09-07 00:15:00
6:35 PM,73.4,30.2,20,30.26,10.0,NW,10.4,19.6,N/A,,Mostly Cloudy,320,2012-09-07 00:35:00
6:55 PM,73.4,30.2,20,30.26,10.0,NW,11.5,-,N/A,,Partly Cloudy,320,2012-09-07 00:55:00
7:15 PM,71.6,30.2,22,30.26,10.0,NW,4.6,-,N/A,,Partly Cloudy,320,2012-09-07 01:15:00
7:35 PM,69.8,30.2,23,30.26,10.0,Calm,Calm,-,N/A,,Clear,0,2012-09-07 01:35:00
7:55 PM,66.2,33.8,30,30.26,10.0,Calm,Calm,-,N/A,,Clear,0,2012-09-07 01:55:00
8:15 PM,64.4,35.6,34,30.27,10.0,Calm,Calm,-,N/A,,Clear,0,2012-09-07 02:15:00
8:35 PM,62.6,35.6,37,30.27,10.0,Calm,Calm,-,N/A,,Clear,0,2012-09-07 02:35:00
8:55 PM,60.8,33.8,36,30.28,10.0,Calm,Calm,-,N/A,,Partly Cloudy,0,2012-09-07 02:55:00
9:15 PM,62.6,32.0,32,30.28,10.0,Calm,Calm,-,N/A,,Clear,0,2012-09-07 03:15:00
9:35 PM,60.8,30.2,31,30.29,10.0,Calm,Calm,-,N/A,,Clear,0,2012-09-07 03:35:00
9:55 PM,57.2,32.0,38,30.30,10.0,Calm,Calm,-,N/A,,Partly Cloudy,0,2012-09-07 03:55:00
10:15 PM,57.2,30.2,36,30.30,10.0,NNW,4.6,-,N/A,,Partly Cloudy,340,2012-09-07 04:15:00
10:35 PM,57.2,30.2,36,30.30,10.0,NNW,8.1,-,N/A,,Partly Cloudy,340,2012-09-07 04:35:00
10:55 PM,57.2,30.2,36,30.30,10.0,North,5.8,-,N/A,,Partly Cloudy,350,2012-09-07 04:55:00
11:15 PM,55.4,33.8,44,30.31,10.0,North,8.1,-,N/A,,Clear,360,2012-09-07 05:15:00
11:35 PM,55.4,32.0,41,30.31,10.0,NNE,3.5,-,N/A,,Clear,30,2012-09-07 05:35:00
11:55 PM,53.6,33.8,47,30.31,10.0,Calm,Calm,-,N/A,,Scattered Clouds,0,2012-09-07 05:55:00